Weather History for La Crosse, WI

Change the Weather History Date:

Saturday, October 1, 2011

  Actual Average Record
Temperature  
Mean Temperature 47 °F 56 °F  
Max Temperature 61 °F 67 °F 92 °F (1976)
Min Temperature 33 °F 46 °F 28 °F (1974)
Degree Days  
Heating Degree Days 18 10  
Month to date heating degree days 18 10  
Since 1 July heating degree days 206 170  
Cooling Degree Days 0 1  
Month to date cooling degree days 0 1  
Year to date cooling degree days 902 775  
Moisture  
Dew Point 35 °F    
Average Humidity 68    
Maximum Humidity 100    
Minimum Humidity 36    
Precipitation  
Precipitation 0.00 in 0.09 in 1.10 in (1979)
Month to date precipitation 0.00 0.09  
Year to date precipitation 31.15 27.61  
Snow  
Snow 0.00 in 0.00 in 0.30 in (1999)
Month to date snowfall 0.0 0.0  
Since 1 July snowfall 0.0 0.0  
Snow Depth 0.00 in    
Sea Level Pressure  
Sea Level Pressure 30.33 in    
Wind  
Wind Speed 2 mph (ESE)    
Max Wind Speed 10 mph    
Max Gust Speed 13 mph    
Visibility 10 miles    
Events      
T = Trace of Precipitation, MM = Missing Value Source: NWS Daily Summary

Daily Weather History Graph

Daily Weather History Graph

Search for Another Location

Airport:

Trip Planner

Search our weather history database for the weather conditions in past years. The results will help you decide how hot, cold, wet, or windy it might be!

Date:

Astronomy

Oct. 01, 2011 Rise Set
Actual Time 7:02 AM CDT 6:46 PM CDT
Civil Twilight 6:33 AM CDT 7:15 PM CDT
Nautical Twilight 6:00 AM CDT 7:48 PM CDT
Astronomical Twilight 5:26 AM CDT 8:22 PM CDT
Moon 12:20 PM CDT 9:32 PM CDT
Length of Visible Light 12h 41m
Length of Day
11h 44m
Waxing Crescent, 24% of the Moon is Illuminated
Oct 1
Waxing Crescent
Oct 3
First Quarter
Oct 11
Full
Oct 19
Last Quarter
Oct 26
New

Hourly Weather History & Observations

Time (CDT) Temp. Windchill Dew Point Humidity Pressure Visibility Wind Dir Wind Speed Gust Speed Precip Events Conditions
12:53 AM 43.0 °F 38.8 °F 34.0 °F 71% 30.30 in 10.0 mi NE 6.9 mph - N/A   Clear
1:53 AM 39.9 °F 37.8 °F 33.1 °F 77% 30.31 in 10.0 mi North 3.5 mph - N/A   Clear
2:53 AM 37.9 °F - 33.1 °F 83% 30.32 in 10.0 mi Calm Calm - N/A   Clear
3:53 AM 37.4 °F - 33.8 °F 87% 30.31 in 10.0 mi Calm Calm - N/A   Clear
4:53 AM 36.0 °F 33.3 °F 33.1 °F 89% 30.34 in 10.0 mi NNW 3.5 mph - N/A   Clear
5:53 AM 34.0 °F - 33.1 °F 96% 30.35 in 10.0 mi Calm Calm - N/A   Clear
6:53 AM 35.6 °F - 32.0 °F 87% 30.35 in 10.0 mi Calm Calm - N/A   Clear
7:53 AM 36.0 °F - 34.0 °F 93% 30.40 in 10.0 mi Calm Calm - N/A   Clear
9:53 AM 45.0 °F - 36.0 °F 71% 30.42 in 10.0 mi Calm Calm - N/A   Clear
10:53 AM 48.9 °F - 37.0 °F 64% 30.42 in 10.0 mi Calm Calm - N/A   Clear
11:53 AM 51.1 °F - 36.0 °F 56% 30.41 in 10.0 mi West 3.5 mph - N/A   Clear
12:53 PM 54.0 °F - 34.0 °F 47% 30.39 in 10.0 mi Calm Calm - N/A   Clear
1:53 PM 55.9 °F - 30.0 °F 37% 30.36 in 10.0 mi Calm Calm - N/A   Clear
2:53 PM 57.2 °F - 30.2 °F 36% 30.32 in 10.0 mi Calm Calm - N/A   Clear
3:53 PM 57.9 °F - 30.9 °F 36% 30.32 in 10.0 mi SE 3.5 mph - N/A   Clear
4:53 PM 59.0 °F - 32.0 °F 36% 30.30 in 10.0 mi Variable 3.5 mph - N/A   Clear
5:53 PM 57.9 °F - 33.1 °F 39% 30.30 in 10.0 mi Calm Calm - N/A   Clear
6:53 PM 51.8 °F - 37.4 °F 58% 30.28 in 10.0 mi Calm Calm - N/A   Clear
7:53 PM 46.9 °F - 39.0 °F 74% 30.30 in 10.0 mi Calm Calm - N/A   Clear
8:53 PM 45.0 °F 43.5 °F 39.9 °F 82% 30.29 in 10.0 mi ESE 3.5 mph - N/A   Clear
9:53 PM 43.0 °F 39.5 °F 39.9 °F 89% 30.29 in 10.0 mi SE 5.8 mph - N/A   Clear
10:53 PM 42.1 °F 39.2 °F 39.0 °F 89% 30.29 in 10.0 mi SE 4.6 mph - N/A   Clear
11:53 PM 41.0 °F 37.1 °F 37.9 °F 89% 30.29 in 10.0 mi SE 5.8 mph - N/A   Clear